Vorticity
13 11 9 9 9 10 11 10 11 12 12 11 9 7 6 6 7 8 7 6 4 3 4 3 4 4 5 6 7 8 11 15 18 19 13 6 3 2 5 7 9 10 10 9 8 8 8 7 8 8 9 8 6 5 3 3 6 9 12 10 10 10 9 8 6 4 -4 -6 6 9 7 7 9 12 8 7 6 2 5 7 5 5 5 6 4 3 4 4
14 13 10 9 8 9 10 11 11 10 11 12 11 9 7 6 6 6 7 8 6 5 4 3 4 3 4 4 5 7 7 8 12 17 17 15 13 7 4 4 6 8 9 10 9 8 7 7 8 8 9 9 8 8 6 4 4 6 11 11 10 10 5 2 1 1 -4 -4 10 14 10 9 9 11 8 6 5 5 7 6 8 8 4 5 5 4 5 5
13 13 12 11 9 9 8 10 11 11 11 11 12 12 10 7 6 6 6 7 7 7 5 5 4 3 4 3 4 5 5 8 8 8 12 15 19 18 13 7 4 5 6 8 9 8 7 7 7 8 8 8 8 8 8 7 5 6 9 11 13 9 4 3 2 4 2 0 12 14 10 10 9 8 7 5 4 6 7 4 6 8 7 5 5 6 5 4
12 13 13 11 11 10 8 8 10 11 12 11 11 11 12 10 8 6 6 6 7 8 7 6 5 4 4 3 4 3 5 7 4 6 9 9 11 17 21 18 11 6 5 5 7 8 8 8 7 7 7 7 9 8 8 8 8 7 7 12 12 5 4 7 6 7 6 6 10 9 7 7 6 6 4 6 6 7 7 5 6 7 8 8 4 3 2 4
12 12 13 12 11 10 10 9 8 10 12 12 11 10 11 11 10 8 7 6 5 6 8 8 6 5 4 4 4 3 5 2 1 9 8 4 6 10 16 20 19 14 9 5 5 6 7 8 7 6 6 6 8 7 8 9 8 8 9 11 7 6 10 9 6 5 7 9 8 5 5 4 5 5 4 5 5 11 12 6 7 8 5 6 9 8 8 8
14 12 12 12 12 11 10 10 9 9 10 12 12 11 10 10 12 10 8 7 6 5 5 8 8 6 5 5 4 4 4 -1 1 10 6 3 6 7 10 14 18 19 17 12 7 6 6 7 7 6 6 5 5 5 7 9 7 8 9 9 8 10 12 9 7 7 7 8 6 6 4 3 5 5 7 5 -3 1 12 12 9 8 7 6 11 14 14 11
15 14 12 12 12 11 10 10 10 9 9 11 12 13 12 10 10 11 11 9 7 6 5 6 7 8 7 5 5 4 5 1 1 6 4 3 4 4 8 9 11 13 18 19 14 9 6 6 6 7 6 5 5 3 4 6 8 8 7 7 8 10 8 6 8 8 7 6 5 5 3 4 6 6 8 8 2 -4 0 11 9 8 9 1 2 9 10 9
15 16 15 12 11 11 10 10 9 9 9 10 11 12 13 12 10 10 11 11 9 7 6 5 5 7 8 7 6 4 5 4 1 5 3 2 3 4 6 6 7 8 11 17 18 16 11 7 6 6 6 6 5 5 4 4 5 7 9 10 10 11 8 7 8 7 7 6 5 3 2 5 5 6 6 3 7 4 -2 1 4 8 10 1 1 8 7 6
14 15 16 15 13 11 10 10 10 9 9 10 11 12 13 13 12 10 9 10 11 9 7 7 6 5 6 8 8 6 5 4 3 4 4 2 3 3 4 5 6 5 6 10 13 16 18 13 8 6 6 5 5 4 4 4 5 5 8 10 11 12 10 8 8 7 6 5 5 3 4 7 5 6 10 6 6 8 5 1 3 7 7 5 6 7 5 5
14 14 16 17 15 13 11 10 9 9 9 10 11 12 13 13 13 12 10 9 9 10 9 8 7 6 4 5 7 8 6 5 5 4 4 4 3 2 3 5 5 5 6 6 6 10 18 18 13 9 6 5 5 5 5 4 5 5 5 9 9 9 10 9 8 7 6 4 4 3 5 7 6 6 7 8 6 6 7 3 1 3 5 8 6 4 5 6
13 14 14 16 16 15 13 11 10 9 9 10 10 11 13 13 13 13 12 11 9 9 9 9 9 7 6 4 4 7 8 8 8 5 5 4 3 3 3 4 5 4 4 4 5 6 10 15 15 13 10 7 6 7 7 4 4 5 5 9 10 10 11 9 8 8 5 4 4 2 7 8 6 7 6 6 6 3 4 5 5 5 7 10 6 5 6 5
11 13 14 15 16 16 14 13 11 10 10 10 11 11 12 14 14 13 13 12 11 10 9 9 10 8 8 6 4 6 8 10 9 7 6 5 4 4 4 5 5 4 4 3 4 3 6 8 11 16 15 11 7 6 7 5 6 5 5 9 11 11 12 10 8 8 6 7 6 2 6 8 5 8 7 6 7 5 5 6 8 6 5 7 6 6 6 6
10 12 13 13 15 16 15 14 12 11 11 11 12 12 13 13 14 14 14 13 12 11 10 9 9 9 9 8 8 8 7 7 8 8 7 7 7 4 4 4 4 5 4 4 2 3 4 2 7 15 16 15 10 7 7 6 6 6 5 8 10 11 12 10 8 8 6 8 8 3 6 8 6 8 10 7 5 5 8 7 7 7 5 7 8 7 8 7
10 11 13 13 13 15 15 14 13 12 11 11 12 12 13 13 14 15 15 15 13 12 12 11 10 9 9 9 9 9 7 6 7 9 8 7 7 6 5 4 5 5 4 6 4 2 3 3 8 10 12 18 13 8 8 6 6 6 5 6 8 9 11 10 8 9 7 9 9 2 7 16 9 6 10 7 3 4 6 6 4 5 4 5 7 8 8 6
11 11 14 13 12 14 14 14 13 12 12 12 12 12 13 13 14 14 14 15 14 14 13 12 12 11 11 11 9 9 8 7 8 9 8 7 7 6 6 4 5 4 4 5 2 3 5 7 10 5 9 17 12 10 9 5 6 5 4 7 6 7 14 15 10 9 9 9 10 2 9 23 17 16 20 7 1 5 4 5 5 5 5 3 5 8 8 7
14 12 14 14 12 13 13 14 14 13 12 12 12 12 13 13 13 13 13 13 13 14 14 14 13 12 12 11 10 11 10 9 8 9 7 8 8 7 7 6 5 5 5 4 3 6 8 6 6 3 7 10 11 14 9 6 9 7 5 6 8 11 17 21 11 5 10 11 9 6 9 14 12 17 23 8 -0 5 4 4 5 5 8 6 8 11 9 8
15 14 15 14 13 12 12 13 14 14 13 12 12 11 12 12 12 13 13 13 12 12 13 14 14 14 14 13 12 12 12 11 9 8 8 8 9 8 7 7 7 6 5 4 5 7 6 4 4 3 5 5 8 13 9 5 5 6 5 4 10 9 4 13 12 3 8 12 7 8 7 0 4 13 13 4 0 5 7 5 4 5 8 11 13 13 9 10
16 16 17 15 13 12 12 12 13 14 13 12 11 11 11 11 11 12 12 13 13 13 13 13 14 16 15 14 13 11 10 10 8 9 9 8 9 9 8 8 8 7 5 6 6 6 5 5 4 2 2 2 4 9 11 8 3 4 5 5 10 7 -1 8 16 9 5 11 9 10 9 -4 1 15 11 5 0 3 9 7 6 6 6 11 13 8 4 8
17 18 18 16 13 13 12 12 12 13 13 12 11 11 11 11 11 11 11 12 12 13 14 13 14 15 15 13 13 12 11 10 9 11 10 8 8 9 9 8 7 7 6 6 5 4 5 3 -0 -1 1 3 5 10 14 10 6 7 4 5 11 11 8 6 10 12 6 11 11 10 15 1 -3 7 3 4 2 -1 6 6 6 9 10 9 6 4 3 1
18 19 18 16 14 13 13 12 11 12 12 11 11 10 10 11 11 10 10 10 9 11 12 14 14 14 14 14 14 12 11 11 10 10 9 8 7 8 9 8 7 7 6 6 6 5 5 1 -1 4 8 8 9 10 12 10 6 8 6 2 4 8 13 7 4 12 9 10 11 10 15 1 -6 5 1 1 5 -1 2 7 8 11 14 12 5 5 7 3
16 17 17 15 15 14 14 13 13 12 12 12 11 10 10 11 11 13 11 9 8 8 9 12 15 13 12 13 16 14 12 12 10 9 9 9 8 7 8 8 8 7 6 7 6 4 2 -1 2 9 9 7 10 8 9 11 3 4 7 1 1 5 13 10 0 4 6 8 13 8 9 3 2 14 8 -0 4 4 5 8 9 8 9 9 3 3 5 6
14 15 15 14 15 14 14 14 14 13 12 13 12 11 11 12 13 13 12 11 10 9 8 8 10 12 12 12 14 15 15 13 10 11 10 9 8 8 8 8 8 8 9 8 5 3 1 2 6 9 7 6 7 7 9 11 5 5 6 3 8 8 10 11 4 6 3 5 20 15 15 18 8 8 10 4 6 11 10 7 5 4 7 6 4 6 5 4
13 13 13 14 14 14 14 14 14 14 14 14 14 13 12 12 13 12 12 12 11 11 11 9 8 8 9 10 12 12 14 13 12 12 10 9 8 8 8 7 7 8 8 6 3 4 3 5 10 8 6 6 4 7 10 7 6 10 8 5 10 11 15 16 11 11 4 3 18 22 28 21 -11 -12 5 9 17 23 18 15 11 5 4 6 12 14 6 1
11 12 13 14 14 14 14 14 15 15 15 15 15 14 13 14 14 14 15 14 13 13 12 12 12 10 9 9 10 11 12 12 12 12 10 10 8 7 9 8 8 8 7 7 6 6 7 8 10 8 6 6 7 9 8 5 6 10 9 5 5 11 13 5 -0 6 7 6 -1 -6 12 10 -16 -6 7 2 8 13 10 9 8 9 6 2 6 7 -2 -2
11 12 13 13 14 14 14 15 16 17 16 16 16 16 15 16 16 16 17 18 19 18 16 16 15 15 14 9 8 11 12 13 13 13 11 10 9 8 9 8 7 8 6 7 6 4 7 7 5 6 8 7 8 8 5 6 10 10 9 4 -0 6 10 4 3 5 6 10 1 -12 -3 2 -4 4 7 1 -1 1 6 8 5 9 12 3 -3 -2 -3 1
11 12 12 14 14 14 15 16 17 17 17 17 16 17 16 17 18 18 19 22 24 21 19 19 16 18 19 14 14 13 11 12 14 14 12 10 11 9 10 10 7 9 8 9 12 7 5 7 5 4 7 8 6 8 7 7 10 8 7 8 3 2 8 13 12 7 6 11 10 4 1 5 14 16 11 8 4 2 7 9 8 6 6 7 2 1 6 6
12 12 13 15 15 16 17 16 17 17 18 18 17 17 18 19 20 19 18 20 23 21 17 20 20 20 24 21 19 16 13 15 15 15 14 12 13 10 10 11 8 9 8 6 10 11 4 4 8 5 4 8 6 5 9 7 8 10 7 9 7 -4 -9 -2 3 4 9 16 17 19 9 -3 8 22 21 19 15 15 14 7 9 9 2 6 7 3 7 7
12 13 13 16 16 17 17 16 19 19 17 16 16 18 19 19 20 21 19 16 18 19 15 18 21 20 23 21 19 22 22 20 17 16 16 16 16 14 12 11 10 11 10 8 7 15 18 5 6 10 3 7 9 4 9 8 6 11 11 10 5 -1 -0 1 11 16 12 15 21 26 21 -1 -5 9 11 16 23 17 14 12 10 13 9 4 5 6 7 7
12 13 14 16 16 17 18 17 19 18 15 15 16 18 17 18 19 16 17 14 14 18 18 19 22 22 24 23 22 25 25 21 18 15 17 20 17 13 14 14 15 14 11 13 7 15 34 16 4 15 7 6 11 4 7 10 7 8 18 33 19 2 11 5 1 16 15 9 4 7 23 13 -1 8 1 0 20 16 5 11 9 10 15 7 5 8 6 6
13 14 15 16 17 18 18 17 17 16 14 16 17 16 13 15 16 11 13 15 11 14 20 20 21 23 24 25 25 23 21 20 22 19 14 20 23 17 16 16 17 18 14 13 4 7 35 28 4 8 11 7 9 12 10 7 14 5 -3 31 36 5 7 7 -6 4 12 9 -2 -3 28 33 4 7 11 -4 7 19 10 9 8 8 13 10 7 7 6 8
14 15 16 18 18 17 17 17 16 14 14 16 14 12 10 10 12 9 9 13 10 8 12 15 18 23 22 23 26 23 21 21 27 32 15 7 18 19 18 12 2 9 14 13 4 -7 12 32 14 1 9 10 5 14 15 5 16 10 -16 8 39 23 8 9 5 -0 -0 8 5 -10 5 30 14 1 13 8 1 7 8 9 10 8 12 12 7 8 7 7
16 16 17 19 18 18 18 15 14 14 14 12 9 7 7 7 10 10 5 9 13 9 8 10 15 24 23 19 21 23 26 18 16 33 28 10 10 12 17 16 -0 -1 1 1 8 -5 -3 32 34 7 4 11 5 9 21 20 9 -0 -3 6 23 33 21 6 6 5 -3 -3 9 9 -5 6 21 9 5 13 8 4 4 11 13 6 8 12 9 8 8 7
17 17 19 20 18 17 16 12 11 14 11 7 4 3 6 8 10 9 4 8 16 9 6 9 10 21 26 21 18 21 29 18 1 18 32 22 16 12 15 22 16 11 2 -4 13 10 -3 19 37 16 1 7 4 -4 13 35 16 -15 -7 4 4 22 27 7 0 10 9 -11 -4 30 19 -2 10 11 1 3 7 14 11 7 12 10 9 12 11 9 8 7
18 19 20 20 18 15 13 9 9 13 8 1 -0 2 7 10 7 6 3 5 12 7 2 6 6 12 23 25 18 19 28 16 -2 15 30 22 17 14 11 13 12 13 12 8 17 16 -4 2 26 20 7 14 8 -9 1 32 34 2 -12 1 7 10 17 16 3 3 20 4 -15 10 18 3 4 4 8 10 0 8 15 7 8 10 10 12 11 10 7 7
20 21 19 19 17 12 11 7 7 11 4 -2 2 4 7 7 4 8 7 2 8 10 6 8 6 3 13 22 12 14 27 12 -3 17 31 22 18 21 22 13 3 5 8 6 13 23 10 3 27 26 12 21 9 -7 7 19 24 18 -4 -4 9 2 8 34 24 2 18 19 -3 3 7 -0 4 3 11 23 7 -2 10 15 10 4 6 11 10 8 6 5
22 22 18 17 14 10 9 5 7 11 2 0 5 2 3 4 1 8 10 3 3 7 10 14 12 5 10 20 12 15 27 10 -1 14 22 18 12 18 29 19 6 8 9 0 -2 15 12 -2 26 34 14 22 6 -21 3 14 7 21 15 -1 5 5 2 29 41 13 6 17 15 20 7 -17 -8 2 -0 13 16 2 0 10 13 6 4 8 7 5 5 3
24 22 15 16 14 9 7 4 8 10 3 6 4 -4 3 6 1 7 11 8 6 5 10 13 11 7 12 16 11 19 23 4 4 17 16 17 11 13 27 22 12 10 13 11 1 13 19 0 16 28 9 24 19 -25 -17 12 10 20 29 5 -6 5 -8 -3 40 35 2 6 14 20 20 -1 -3 8 7 13 16 5 -1 6 12 8 4 4 4 3 2 1
26 20 12 15 14 7 6 4 6 5 5 8 1 -3 6 5 3 9 9 12 12 7 9 11 10 11 12 10 8 19 22 5 8 16 11 14 16 18 22 19 14 7 9 13 2 12 27 6 11 29 17 26 37 1 -19 3 10 10 35 28 -10 1 8 -14 11 33 10 6 11 11 23 22 11 8 9 14 14 9 9 9 8 7 5 6 4 1 2 1
26 16 11 15 13 7 7 4 1 2 6 5 1 5 8 4 8 8 6 13 12 8 9 5 12 18 10 5 11 22 25 13 9 11 8 11 14 17 17 16 15 10 13 14 -4 3 19 4 4 28 28 21 30 19 -12 -9 7 -7 17 45 -1 -15 23 6 -10 14 16 7 7 2 1 6 17 20 11 7 10 16 17 11 9 9 6 6 4 0 1 2
22 12 11 14 12 9 7 3 1 2 4 6 8 10 5 6 12 5 5 13 9 11 13 -1 3 15 2 -5 9 20 23 18 8 2 7 13 15 13 7 12 19 13 16 13 -4 4 18 7 0 12 24 22 21 23 -2 -7 15 -10 -12 32 10 -17 18 15 -13 3 21 13 4 5 7 3 9 21 23 16 7 10 15 13 11 9 7 6 4 2 3 3
17 9 11 14 13 12 6 2 1 0 4 12 15 9 2 8 15 8 9 12 4 8 14 6 8 16 5 -4 6 17 20 17 5 -0 6 8 13 17 4 3 20 23 22 8 -7 8 20 10 1 -1 12 19 18 29 19 7 23 9 -7 10 5 -3 16 15 -5 -4 16 23 9 9 26 21 2 -3 10 18 9 0 3 9 11 8 7 6 4 5 5 3
15 7 11 14 13 12 6 1 3 4 11 20 15 3 2 12 14 10 12 11 5 6 9 12 18 19 10 2 5 9 12 14 5 4 16 10 10 21 5 -3 14 21 20 7 -7 7 20 12 1 -2 12 21 22 31 22 5 13 22 20 7 -3 6 11 4 5 -3 -1 14 8 2 11 14 10 4 2 12 20 13 5 6 12 11 9 8 7 7 6 6
13 7 11 14 10 10 7 3 7 14 18 19 11 -0 4 13 9 7 15 13 7 10 12 11 15 20 13 5 4 -3 -2 14 8 2 20 18 13 21 5 -5 12 15 14 12 -2 2 16 13 -1 -1 16 21 19 30 26 6 1 15 24 2 -11 11 14 4 12 8 1 7 9 8 5 5 18 23 16 15 19 19 15 12 12 11 10 9 8 7 7 7
12 8 10 13 10 9 7 6 12 19 16 12 8 3 5 10 8 9 17 14 6 10 15 9 10 22 17 6 11 3 -3 12 5 -5 12 10 10 32 19 -1 8 12 14 15 -1 -5 7 9 -1 -2 12 14 6 13 23 14 -2 5 25 11 -12 0 15 13 9 6 9 9 6 9 8 12 18 14 16 21 13 11 15 13 11 10 10 9 9 9 7 6
11 10 10 12 11 7 8 13 17 16 10 6 5 6 6 7 12 17 15 12 8 8 14 12 11 25 22 7 12 11 5 11 0 -9 4 -2 -0 28 24 5 6 9 17 21 7 -3 -0 4 3 -0 5 14 9 0 10 19 3 -5 16 25 10 3 11 15 3 -2 8 10 10 11 2 12 24 10 7 17 14 13 15 12 12 10 9 11 12 12 9 8
12 11 9 11 10 7 13 17 10 6 14 13 2 5 14 12 15 18 10 9 13 10 12 15 14 23 25 11 10 10 5 9 7 0 3 -1 1 14 12 6 8 5 7 14 14 9 2 2 7 2 -3 11 18 7 11 24 13 -5 2 17 17 8 10 18 8 2 7 1 5 14 -0 -3 12 10 6 10 9 13 14 13 13 9 8 11 10 11 11 10
14 10 9 13 10 10 17 11 -1 4 19 18 4 7 19 15 10 12 7 8 13 12 16 18 15 19 23 17 18 17 7 4 8 10 9 5 5 11 11 6 4 6 5 6 12 14 7 4 8 3 -4 6 17 11 9 19 12 -0 5 14 12 2 3 12 8 7 14 6 4 17 11 1 4 6 10 11 7 7 6 7 10 10 11 13 12 14 15 14
14 4 8 18 14 12 15 4 1 10 14 11 12 15 12 5 5 8 8 7 4 8 17 18 14 15 18 24 32 28 15 6 5 10 16 13 6 8 15 11 3 8 10 7 10 12 8 7 8 6 2 4 12 11 7 15 14 3 6 13 11 5 3 6 5 5 12 10 6 13 14 8 5 6 12 15 13 11 9 9 13 14 15 15 15 16 16 16
11 -1 6 19 15 14 13 4 5 11 8 10 18 15 3 1 7 6 6 12 9 9 15 11 10 17 19 25 27 17 11 11 9 12 15 14 12 9 12 16 10 9 10 8 9 10 10 11 5 6 9 6 10 14 8 10 13 6 7 9 9 10 8 5 4 3 3 2 3 16 27 22 11 6 8 11 12 13 13 11 11 14 16 15 15 15 15 15
8 -3 7 15 10 13 17 10 8 8 9 16 15 6 2 4 11 8 5 16 20 15 14 9 10 20 22 20 18 11 12 11 7 15 17 11 15 15 10 12 11 8 9 9 7 4 8 17 11 1 6 11 13 13 10 10 8 4 8 11 10 14 18 17 13 7 5 2 -4 3 20 27 24 18 11 10 10 10 12 13 12 14 15 13 12 15 15 13
7 0 7 10 4 13 20 13 10 9 13 17 8 2 2 -3 5 16 10 13 21 20 22 22 16 16 15 14 20 20 17 9 6 21 29 20 19 22 21 21 18 13 10 8 8 6 2 13 18 2 -4 10 17 12 14 17 5 -2 7 9 4 7 16 18 11 1 1 4 -0 -0 3 1 6 12 11 10 11 10 11 14 13 14 13 10 11 13 13 11
10 0 4 9 8 17 20 13 12 11 13 17 4 -2 3 -5 3 22 14 5 11 15 23 23 13 16 18 14 21 24 18 19 22 23 22 19 22 23 23 28 31 31 28 18 13 15 7 5 16 10 -3 6 13 8 15 24 13 4 9 4 -6 -2 7 7 2 -4 -3 -3 -6 1 5 -2 -5 0 3 6 10 11 12 12 11 11 10 9 11 11 9 8
Height
5728 5728 5729 5729 5730 5730 5731 5732 5733 5734 5735 5737 5739 5740 5742 5744 5746 5747 5749 5752 5754 5756 5758 5759 5761 5762 5764 5765 5767 5768 5770 5771 5772 5775 5777 5777 5780 5783 5784 5788 5790 5793 5795 5797 5799 5801 5802 5804 5805 5807 5809 5810 5812 5813 5814 5815 5816 5817 5818 5820 5822 5824 5826 5825 5825 5827 5825 5820 5825 5833 5833 5833 5835 5837 5838 5839 5840 5840 5841 5841 5840 5841 5842 5842 5843 5844 5845 5845
5723 5723 5723 5724 5724 5725 5725 5726 5727 5728 5730 5731 5733 5735 5736 5738 5740 5742 5744 5747 5749 5751 5753 5755 5757 5758 5760 5762 5763 5765 5766 5768 5769 5771 5772 5773 5775 5778 5781 5785 5787 5789 5791 5793 5795 5797 5798 5800 5802 5804 5805 5807 5808 5810 5812 5813 5814 5815 5816 5818 5819 5821 5821 5819 5819 5821 5820 5820 5826 5831 5831 5832 5833 5835 5836 5838 5838 5839 5840 5839 5839 5839 5840 5841 5841 5842 5843 5844
5717 5717 5717 5718 5718 5719 5720 5721 5722 5723 5724 5725 5727 5729 5730 5732 5735 5737 5739 5741 5744 5746 5748 5750 5752 5754 5756 5758 5759 5761 5763 5764 5766 5767 5769 5770 5770 5773 5778 5781 5783 5786 5787 5789 5791 5793 5795 5797 5799 5801 5802 5804 5805 5807 5809 5810 5811 5812 5813 5815 5817 5818 5816 5815 5816 5818 5819 5821 5825 5828 5829 5830 5831 5833 5835 5836 5836 5838 5838 5837 5838 5838 5838 5839 5840 5841 5842 5843
5712 5712 5712 5712 5712 5713 5714 5715 5716 5717 5718 5720 5722 5723 5725 5727 5729 5731 5734 5736 5738 5741 5743 5745 5747 5749 5751 5753 5756 5757 5759 5761 5761 5763 5766 5766 5766 5770 5774 5777 5779 5781 5783 5786 5788 5790 5792 5794 5796 5798 5799 5801 5802 5804 5805 5807 5809 5809 5810 5812 5813 5813 5812 5813 5815 5816 5818 5821 5824 5826 5827 5827 5829 5832 5833 5834 5835 5837 5836 5836 5837 5836 5836 5837 5838 5839 5840 5841
5706 5706 5706 5706 5707 5707 5708 5709 5710 5711 5712 5714 5715 5717 5719 5721 5723 5726 5728 5730 5733 5736 5738 5740 5742 5744 5747 5749 5751 5753 5755 5755 5756 5761 5763 5762 5764 5767 5771 5773 5775 5777 5779 5782 5784 5786 5788 5791 5793 5795 5796 5798 5800 5801 5802 5804 5805 5806 5808 5809 5808 5809 5811 5811 5812 5813 5816 5820 5822 5823 5823 5824 5827 5830 5831 5833 5834 5834 5834 5834 5835 5834 5835 5836 5837 5838 5839 5839
5701 5701 5700 5701 5701 5702 5702 5703 5704 5706 5707 5708 5709 5711 5713 5715 5717 5719 5722 5724 5727 5730 5733 5735 5737 5739 5742 5744 5746 5749 5751 5750 5752 5758 5760 5759 5761 5764 5767 5769 5772 5773 5775 5778 5780 5783 5785 5787 5790 5791 5794 5795 5796 5798 5799 5800 5802 5803 5805 5806 5805 5808 5809 5807 5809 5812 5815 5817 5818 5819 5821 5824 5827 5827 5828 5831 5830 5830 5831 5832 5832 5832 5833 5834 5836 5836 5837 5838
5696 5695 5695 5695 5695 5696 5696 5697 5698 5700 5701 5702 5704 5705 5707 5709 5711 5714 5716 5718 5721 5724 5727 5729 5731 5734 5737 5739 5741 5743 5746 5747 5749 5754 5756 5757 5758 5761 5764 5766 5768 5770 5772 5775 5776 5779 5781 5784 5786 5788 5790 5792 5793 5795 5796 5797 5799 5800 5802 5802 5803 5805 5805 5804 5807 5810 5813 5814 5816 5818 5820 5823 5824 5824 5826 5828 5827 5828 5830 5830 5830 5830 5831 5833 5834 5835 5835 5836
5690 5689 5689 5689 5689 5690 5690 5691 5692 5693 5695 5697 5698 5699 5701 5703 5705 5708 5710 5712 5715 5718 5721 5723 5726 5729 5731 5734 5736 5738 5742 5743 5744 5750 5753 5753 5755 5757 5761 5763 5765 5767 5769 5771 5773 5775 5777 5780 5783 5784 5786 5788 5790 5792 5793 5794 5796 5797 5798 5799 5801 5802 5802 5802 5806 5808 5810 5812 5814 5816 5819 5820 5821 5822 5824 5825 5825 5827 5828 5828 5828 5828 5830 5832 5833 5833 5833 5834
5684 5684 5683 5683 5683 5684 5684 5685 5686 5687 5689 5690 5691 5693 5694 5696 5699 5701 5703 5706 5709 5712 5714 5717 5719 5723 5726 5728 5731 5733 5737 5738 5739 5746 5749 5749 5752 5754 5757 5760 5762 5764 5766 5768 5769 5771 5774 5777 5779 5781 5783 5785 5787 5789 5790 5791 5793 5795 5795 5797 5798 5799 5800 5801 5803 5805 5807 5810 5812 5814 5816 5817 5818 5820 5822 5822 5823 5825 5826 5826 5827 5828 5829 5830 5830 5831 5831 5831
5679 5678 5677 5677 5677 5678 5678 5679 5680 5681 5682 5684 5685 5686 5688 5690 5692 5694 5697 5700 5702 5706 5708 5710 5713 5717 5719 5722 5725 5728 5732 5734 5736 5741 5744 5746 5748 5750 5753 5756 5759 5761 5763 5765 5766 5768 5771 5774 5776 5777 5779 5781 5783 5785 5787 5788 5790 5791 5793 5794 5795 5796 5797 5798 5801 5803 5805 5807 5810 5812 5813 5814 5816 5819 5820 5819 5821 5823 5824 5824 5825 5826 5827 5827 5828 5828 5829 5829
5673 5672 5671 5671 5671 5672 5672 5673 5674 5675 5676 5677 5679 5680 5682 5684 5685 5688 5690 5693 5696 5699 5701 5704 5707 5710 5713 5716 5720 5722 5727 5730 5732 5735 5739 5742 5744 5746 5749 5752 5756 5758 5760 5762 5763 5766 5768 5770 5771 5773 5775 5778 5780 5782 5784 5786 5787 5788 5791 5792 5793 5794 5795 5796 5799 5801 5803 5805 5808 5810 5811 5811 5814 5816 5817 5816 5819 5821 5821 5822 5824 5824 5824 5825 5826 5826 5827 5828
5667 5666 5665 5665 5665 5665 5666 5667 5668 5669 5670 5671 5673 5674 5676 5677 5679 5681 5684 5687 5690 5693 5696 5698 5700 5704 5706 5710 5715 5718 5722 5726 5727 5730 5734 5737 5740 5742 5745 5748 5752 5754 5756 5758 5760 5762 5764 5766 5767 5770 5773 5775 5778 5779 5781 5783 5784 5786 5789 5789 5791 5792 5793 5795 5797 5799 5801 5803 5805 5807 5808 5809 5811 5815 5815 5814 5817 5818 5818 5821 5822 5823 5823 5824 5824 5825 5825 5826
5661 5660 5660 5659 5659 5659 5660 5661 5662 5663 5664 5665 5666 5668 5669 5671 5673 5675 5678 5681 5684 5687 5689 5692 5694 5697 5700 5704 5711 5712 5715 5720 5723 5725 5729 5733 5736 5738 5741 5744 5747 5750 5753 5754 5756 5758 5761 5762 5765 5768 5769 5772 5775 5776 5777 5781 5782 5784 5786 5787 5788 5790 5790 5792 5794 5796 5799 5800 5801 5805 5806 5807 5810 5813 5812 5811 5815 5816 5817 5819 5820 5821 5821 5822 5822 5823 5823 5824
5656 5654 5654 5653 5653 5653 5654 5654 5655 5656 5658 5659 5660 5662 5663 5665 5667 5670 5672 5675 5678 5680 5683 5685 5688 5691 5694 5700 5705 5706 5709 5714 5718 5721 5724 5728 5731 5734 5737 5740 5743 5746 5749 5751 5753 5754 5757 5759 5763 5765 5765 5769 5772 5771 5775 5778 5779 5781 5783 5784 5786 5787 5788 5790 5792 5794 5796 5797 5800 5803 5805 5806 5807 5809 5809 5809 5813 5815 5815 5817 5817 5818 5819 5820 5820 5820 5821 5822
5649 5649 5648 5648 5647 5647 5648 5648 5649 5650 5652 5653 5654 5656 5658 5660 5662 5664 5666 5669 5671 5674 5676 5679 5682 5685 5689 5694 5698 5700 5704 5709 5713 5715 5717 5722 5727 5729 5732 5736 5739 5741 5744 5747 5748 5751 5754 5757 5760 5761 5763 5767 5767 5768 5774 5776 5776 5778 5780 5782 5784 5786 5787 5787 5788 5791 5793 5795 5798 5801 5804 5806 5805 5806 5806 5807 5810 5812 5813 5814 5814 5816 5818 5818 5818 5818 5819 5819
5643 5643 5642 5642 5641 5641 5642 5643 5644 5645 5646 5647 5649 5651 5652 5654 5656 5658 5660 5663 5665 5668 5670 5673 5676 5679 5683 5687 5692 5695 5698 5704 5708 5709 5712 5717 5722 5725 5727 5731 5734 5737 5740 5742 5744 5748 5751 5754 5756 5757 5760 5763 5763 5767 5772 5772 5773 5776 5777 5780 5781 5785 5786 5783 5785 5789 5791 5793 5796 5799 5803 5808 5807 5802 5801 5804 5808 5808 5810 5812 5812 5814 5815 5816 5817 5816 5816 5816
5637 5637 5636 5636 5636 5636 5636 5637 5638 5639 5641 5642 5644 5645 5647 5649 5650 5652 5654 5657 5659 5662 5664 5667 5670 5674 5677 5682 5687 5690 5693 5698 5702 5703 5707 5712 5716 5720 5723 5726 5730 5733 5735 5738 5740 5744 5747 5749 5751 5753 5756 5758 5761 5765 5767 5767 5770 5772 5775 5778 5779 5783 5784 5781 5782 5787 5791 5791 5794 5797 5800 5808 5807 5798 5798 5802 5805 5806 5808 5809 5810 5812 5813 5814 5815 5814 5813 5813
5631 5631 5630 5630 5630 5631 5631 5632 5633 5634 5635 5637 5638 5640 5642 5643 5645 5647 5649 5651 5653 5656 5658 5662 5665 5669 5671 5675 5680 5684 5687 5691 5695 5698 5702 5706 5710 5714 5718 5722 5725 5727 5730 5733 5736 5739 5742 5744 5746 5749 5751 5754 5757 5760 5762 5765 5768 5770 5774 5776 5778 5781 5782 5780 5780 5785 5789 5788 5791 5794 5797 5805 5803 5795 5796 5800 5801 5803 5806 5807 5809 5810 5811 5812 5813 5812 5812 5811
5626 5625 5625 5625 5625 5625 5626 5627 5628 5629 5630 5632 5633 5635 5636 5638 5640 5642 5643 5645 5648 5651 5653 5655 5659 5663 5665 5668 5673 5677 5680 5684 5690 5693 5696 5700 5704 5708 5712 5716 5719 5722 5725 5729 5732 5734 5737 5739 5741 5744 5748 5751 5754 5757 5760 5763 5766 5769 5772 5775 5776 5778 5780 5780 5778 5781 5786 5787 5789 5791 5795 5802 5799 5792 5794 5796 5798 5801 5804 5805 5807 5807 5808 5810 5810 5810 5810 5810
5620 5620 5620 5620 5620 5621 5621 5622 5623 5624 5625 5626 5628 5629 5631 5633 5634 5635 5638 5640 5643 5645 5646 5648 5654 5657 5658 5661 5666 5670 5674 5679 5684 5686 5689 5694 5699 5703 5706 5710 5714 5717 5720 5724 5727 5729 5733 5735 5737 5742 5745 5748 5752 5755 5758 5762 5764 5766 5769 5772 5773 5775 5778 5779 5776 5777 5782 5785 5787 5788 5792 5797 5796 5790 5790 5794 5796 5799 5801 5803 5804 5805 5806 5807 5807 5808 5808 5807
5615 5615 5615 5615 5615 5616 5616 5617 5618 5619 5620 5621 5623 5624 5625 5627 5628 5630 5633 5635 5637 5639 5640 5644 5648 5651 5652 5654 5660 5666 5670 5673 5676 5679 5684 5690 5694 5697 5701 5705 5709 5713 5716 5720 5722 5724 5728 5730 5734 5740 5742 5745 5749 5752 5755 5759 5759 5761 5766 5769 5771 5773 5776 5777 5772 5773 5780 5783 5784 5786 5787 5792 5794 5788 5788 5792 5794 5796 5799 5801 5802 5803 5804 5805 5805 5805 5806 5806
5611 5610 5610 5610 5610 5611 5611 5612 5613 5614 5615 5616 5617 5618 5620 5622 5623 5625 5628 5629 5631 5634 5636 5639 5642 5645 5648 5650 5656 5661 5664 5668 5671 5674 5680 5684 5688 5692 5696 5700 5704 5709 5713 5715 5717 5719 5723 5727 5731 5736 5738 5741 5745 5748 5752 5754 5754 5758 5763 5766 5769 5770 5774 5775 5767 5770 5778 5779 5782 5783 5783 5790 5791 5785 5785 5790 5792 5794 5797 5799 5800 5801 5802 5802 5803 5803 5804 5804
5606 5605 5605 5605 5605 5606 5606 5607 5608 5609 5610 5611 5612 5613 5615 5616 5618 5620 5622 5624 5626 5628 5631 5634 5637 5640 5643 5646 5650 5654 5657 5662 5665 5669 5675 5679 5683 5688 5691 5696 5700 5704 5707 5709 5712 5716 5720 5725 5728 5731 5734 5737 5740 5745 5749 5749 5750 5756 5760 5763 5766 5767 5773 5773 5763 5767 5775 5777 5782 5782 5781 5787 5785 5780 5784 5788 5789 5792 5794 5796 5797 5798 5800 5800 5801 5802 5802 5801
5601 5601 5601 5600 5601 5601 5602 5602 5604 5604 5605 5606 5607 5608 5610 5611 5613 5615 5617 5619 5621 5623 5626 5628 5631 5634 5637 5640 5644 5647 5652 5657 5661 5665 5670 5675 5679 5683 5687 5692 5696 5698 5702 5706 5709 5712 5717 5722 5725 5727 5730 5733 5736 5742 5744 5745 5748 5753 5756 5759 5763 5765 5771 5768 5760 5765 5772 5774 5779 5778 5778 5782 5779 5778 5783 5785 5788 5789 5790 5792 5794 5796 5797 5798 5799 5800 5800 5800
5597 5596 5596 5596 5596 5596 5597 5598 5599 5600 5600 5601 5602 5603 5605 5606 5608 5610 5612 5614 5616 5618 5620 5623 5625 5629 5632 5634 5638 5643 5647 5652 5657 5660 5665 5670 5673 5678 5682 5686 5690 5694 5698 5702 5705 5708 5712 5717 5719 5722 5726 5729 5733 5737 5739 5742 5746 5750 5752 5755 5759 5762 5766 5763 5759 5763 5768 5770 5774 5773 5775 5778 5775 5776 5780 5782 5785 5786 5787 5789 5790 5793 5794 5795 5796 5797 5798 5798
5592 5592 5591 5591 5591 5592 5593 5594 5594 5595 5596 5597 5598 5599 5601 5602 5604 5606 5608 5610 5612 5613 5615 5617 5620 5623 5626 5629 5635 5640 5642 5647 5652 5654 5659 5664 5668 5673 5677 5680 5685 5690 5694 5698 5700 5702 5707 5711 5714 5717 5721 5724 5729 5732 5736 5739 5742 5745 5748 5752 5756 5759 5762 5761 5757 5759 5764 5768 5770 5770 5774 5777 5774 5774 5776 5779 5782 5783 5784 5786 5787 5789 5790 5791 5793 5794 5795 5796
5587 5587 5587 5587 5587 5588 5589 5590 5591 5592 5592 5593 5594 5595 5597 5599 5600 5602 5605 5607 5608 5609 5610 5612 5615 5619 5622 5626 5630 5634 5637 5642 5646 5649 5654 5660 5663 5667 5671 5675 5681 5685 5689 5692 5694 5697 5703 5706 5709 5713 5716 5720 5724 5728 5731 5735 5739 5742 5745 5748 5752 5754 5756 5756 5755 5757 5762 5767 5767 5767 5771 5775 5774 5772 5773 5775 5778 5780 5781 5782 5783 5785 5787 5788 5790 5791 5793 5794
5582 5582 5582 5582 5583 5584 5585 5586 5587 5588 5589 5590 5591 5593 5595 5596 5598 5600 5602 5605 5605 5605 5607 5609 5612 5615 5618 5621 5624 5629 5634 5638 5641 5644 5649 5655 5658 5662 5667 5671 5676 5681 5685 5686 5689 5694 5698 5702 5704 5708 5712 5716 5721 5724 5727 5731 5735 5739 5741 5744 5747 5748 5751 5754 5754 5755 5760 5764 5765 5763 5765 5771 5772 5770 5770 5772 5774 5776 5777 5778 5780 5782 5784 5786 5787 5788 5790 5791
5577 5577 5578 5578 5579 5580 5581 5583 5584 5585 5586 5587 5589 5591 5593 5594 5596 5598 5600 5603 5603 5603 5605 5608 5610 5612 5614 5617 5620 5625 5630 5632 5635 5639 5644 5650 5653 5657 5663 5667 5672 5677 5680 5682 5687 5691 5693 5698 5699 5702 5709 5714 5717 5720 5723 5727 5732 5736 5738 5740 5742 5744 5748 5751 5752 5754 5758 5760 5762 5761 5760 5766 5771 5768 5766 5769 5771 5772 5773 5774 5776 5779 5780 5782 5784 5786 5787 5788
5572 5572 5573 5574 5575 5576 5578 5580 5581 5583 5584 5586 5587 5589 5591 5593 5595 5597 5599 5601 5602 5603 5604 5605 5607 5609 5611 5613 5617 5621 5624 5626 5630 5634 5640 5646 5649 5653 5659 5664 5668 5673 5676 5678 5683 5687 5690 5692 5692 5698 5707 5711 5713 5716 5719 5723 5729 5733 5736 5735 5737 5741 5745 5747 5749 5752 5754 5755 5757 5760 5758 5762 5768 5766 5764 5767 5769 5768 5769 5770 5772 5776 5777 5779 5781 5783 5785 5786
5567 5567 5568 5570 5571 5573 5575 5577 5579 5581 5582 5584 5586 5588 5590 5591 5593 5596 5598 5599 5601 5602 5603 5604 5606 5607 5609 5611 5614 5617 5620 5624 5627 5630 5634 5639 5643 5648 5653 5658 5662 5667 5672 5675 5678 5683 5686 5685 5688 5696 5703 5706 5708 5713 5716 5720 5726 5729 5730 5730 5734 5738 5741 5743 5746 5747 5748 5750 5753 5757 5758 5759 5763 5764 5763 5765 5765 5764 5765 5767 5770 5773 5774 5776 5778 5780 5782 5783
5562 5563 5564 5566 5568 5570 5572 5575 5577 5579 5580 5583 5585 5586 5588 5590 5592 5595 5597 5598 5601 5603 5603 5604 5605 5606 5608 5609 5612 5615 5618 5623 5625 5625 5628 5633 5637 5641 5646 5652 5657 5662 5666 5670 5674 5679 5682 5682 5686 5692 5697 5699 5703 5708 5711 5714 5720 5724 5723 5725 5730 5734 5735 5737 5740 5741 5742 5747 5750 5753 5757 5759 5759 5759 5759 5759 5759 5759 5762 5765 5767 5770 5772 5774 5775 5778 5780 5781
5557 5558 5560 5562 5565 5567 5570 5573 5575 5576 5578 5581 5583 5585 5587 5589 5592 5594 5596 5598 5600 5601 5601 5603 5605 5606 5607 5608 5611 5614 5617 5621 5622 5621 5626 5632 5634 5638 5644 5649 5654 5659 5663 5667 5670 5675 5678 5679 5681 5686 5691 5694 5699 5704 5706 5708 5714 5716 5716 5720 5726 5729 5730 5731 5735 5737 5739 5744 5747 5750 5755 5758 5755 5753 5753 5753 5754 5758 5761 5763 5765 5767 5769 5771 5774 5776 5777 5779
5552 5553 5556 5559 5561 5564 5568 5570 5572 5574 5577 5579 5581 5583 5586 5588 5591 5593 5595 5597 5598 5599 5600 5603 5605 5606 5606 5608 5610 5612 5615 5619 5620 5621 5625 5630 5632 5635 5640 5645 5650 5656 5662 5666 5668 5671 5674 5674 5676 5681 5687 5690 5695 5701 5703 5705 5710 5711 5713 5719 5723 5726 5727 5728 5732 5736 5738 5742 5745 5748 5752 5754 5750 5748 5749 5750 5752 5756 5759 5762 5764 5766 5767 5769 5772 5774 5776 5777
5547 5549 5552 5555 5558 5562 5565 5567 5570 5572 5575 5577 5580 5582 5584 5588 5590 5592 5594 5596 5597 5598 5601 5602 5604 5605 5605 5606 5608 5610 5614 5617 5619 5621 5624 5627 5629 5633 5637 5642 5646 5652 5659 5663 5665 5669 5672 5672 5674 5679 5683 5687 5691 5697 5700 5703 5706 5708 5711 5715 5719 5723 5726 5728 5731 5735 5737 5740 5742 5744 5748 5747 5744 5745 5747 5749 5751 5754 5756 5759 5761 5763 5765 5767 5769 5771 5774 5775
5542 5545 5548 5551 5555 5559 5562 5565 5567 5570 5573 5576 5578 5580 5584 5587 5589 5591 5592 5593 5595 5598 5600 5602 5603 5604 5605 5606 5608 5610 5613 5617 5619 5622 5624 5626 5629 5632 5636 5641 5644 5649 5656 5659 5662 5666 5669 5672 5674 5676 5680 5684 5688 5693 5697 5699 5702 5704 5707 5711 5716 5722 5726 5727 5729 5732 5734 5737 5739 5740 5741 5740 5739 5742 5744 5745 5748 5751 5753 5755 5758 5760 5762 5765 5767 5769 5771 5773
5538 5541 5544 5548 5552 5556 5559 5562 5565 5568 5571 5574 5576 5579 5582 5585 5587 5589 5590 5591 5593 5596 5598 5600 5601 5602 5604 5605 5607 5609 5612 5615 5618 5620 5623 5625 5629 5632 5635 5640 5643 5648 5654 5657 5661 5664 5667 5672 5674 5673 5677 5681 5683 5689 5694 5696 5699 5701 5704 5708 5714 5720 5724 5726 5727 5729 5730 5732 5735 5735 5736 5736 5737 5739 5741 5742 5745 5748 5750 5752 5755 5757 5760 5762 5765 5767 5768 5770
5534 5538 5542 5546 5550 5554 5557 5560 5563 5566 5569 5572 5575 5578 5580 5582 5585 5586 5588 5590 5592 5594 5596 5597 5598 5600 5603 5605 5606 5608 5611 5614 5616 5618 5621 5624 5627 5631 5635 5639 5642 5647 5652 5655 5659 5662 5666 5671 5672 5671 5675 5679 5679 5684 5690 5692 5695 5700 5704 5707 5711 5716 5718 5720 5722 5724 5725 5728 5732 5732 5732 5734 5736 5736 5738 5740 5743 5745 5748 5750 5752 5755 5757 5760 5762 5764 5766 5767
5531 5535 5539 5543 5547 5551 5554 5558 5561 5564 5567 5570 5574 5577 5579 5581 5582 5584 5586 5588 5590 5592 5594 5595 5597 5599 5601 5603 5605 5608 5610 5612 5615 5618 5620 5622 5625 5628 5634 5638 5641 5645 5650 5653 5656 5660 5663 5667 5668 5669 5672 5676 5677 5680 5684 5688 5691 5697 5702 5704 5708 5712 5715 5716 5719 5721 5723 5726 5730 5730 5730 5732 5734 5734 5735 5738 5741 5744 5746 5748 5750 5753 5755 5757 5759 5761 5763 5765
5528 5533 5538 5541 5545 5549 5552 5556 5559 5563 5566 5570 5573 5575 5577 5579 5581 5582 5584 5586 5589 5590 5592 5594 5595 5598 5600 5602 5603 5606 5609 5612 5615 5617 5619 5621 5624 5626 5631 5636 5639 5643 5648 5651 5654 5658 5660 5663 5666 5667 5669 5672 5673 5676 5681 5685 5689 5693 5697 5700 5704 5707 5711 5713 5716 5718 5721 5724 5726 5727 5728 5730 5731 5730 5732 5734 5737 5740 5743 5746 5748 5750 5752 5755 5757 5758 5760 5762
5527 5532 5536 5540 5544 5547 5551 5554 5558 5562 5565 5568 5570 5573 5575 5577 5578 5580 5582 5585 5588 5589 5591 5593 5594 5596 5599 5600 5602 5604 5608 5612 5613 5615 5617 5620 5622 5625 5629 5634 5637 5641 5645 5649 5652 5655 5657 5660 5663 5664 5666 5668 5671 5675 5681 5685 5688 5690 5693 5697 5701 5704 5707 5710 5712 5715 5718 5721 5723 5725 5726 5727 5726 5727 5728 5729 5732 5736 5740 5742 5745 5748 5750 5752 5754 5756 5758 5759
5526 5531 5535 5539 5543 5546 5550 5553 5557 5560 5563 5566 5568 5571 5573 5575 5577 5579 5582 5584 5586 5588 5590 5591 5593 5595 5596 5599 5601 5603 5606 5610 5612 5614 5617 5619 5621 5624 5628 5632 5636 5639 5643 5647 5650 5653 5655 5657 5660 5662 5665 5668 5671 5675 5679 5684 5687 5689 5691 5696 5700 5702 5704 5707 5710 5713 5715 5718 5721 5724 5723 5721 5722 5723 5725 5726 5730 5734 5737 5740 5742 5744 5746 5749 5751 5753 5755 5756
5525 5530 5534 5538 5541 5545 5549 5552 5556 5559 5562 5564 5566 5569 5571 5574 5576 5579 5581 5583 5585 5587 5588 5590 5591 5593 5595 5598 5601 5603 5605 5608 5610 5614 5617 5618 5620 5623 5626 5630 5634 5637 5641 5644 5648 5650 5652 5654 5659 5662 5665 5669 5672 5675 5679 5681 5684 5685 5688 5693 5696 5698 5700 5705 5710 5712 5713 5715 5720 5722 5719 5716 5718 5720 5722 5725 5730 5732 5734 5737 5739 5741 5743 5745 5747 5749 5751 5753
5524 5529 5533 5536 5540 5543 5548 5551 5555 5558 5560 5562 5565 5568 5570 5573 5575 5578 5580 5582 5584 5586 5587 5589 5590 5592 5595 5597 5599 5602 5604 5606 5610 5614 5616 5616 5618 5622 5625 5628 5632 5635 5638 5641 5644 5648 5651 5654 5657 5660 5663 5666 5668 5671 5674 5676 5679 5682 5686 5690 5693 5696 5698 5702 5707 5709 5710 5712 5716 5717 5714 5713 5715 5717 5719 5724 5727 5728 5731 5733 5736 5738 5740 5742 5744 5746 5748 5749
5523 5528 5532 5535 5538 5543 5547 5550 5553 5557 5559 5561 5564 5567 5570 5572 5575 5577 5579 5581 5583 5584 5586 5588 5589 5591 5593 5595 5597 5600 5603 5606 5609 5611 5613 5614 5616 5620 5623 5627 5630 5633 5636 5639 5642 5645 5649 5653 5656 5658 5660 5662 5663 5666 5669 5672 5676 5680 5683 5687 5691 5693 5696 5700 5704 5705 5706 5709 5712 5712 5710 5711 5713 5714 5717 5720 5722 5725 5728 5731 5733 5735 5737 5739 5741 5743 5744 5746
5523 5527 5531 5535 5538 5542 5546 5549 5552 5556 5559 5561 5563 5567 5570 5572 5574 5576 5578 5580 5581 5583 5585 5586 5588 5590 5592 5594 5597 5599 5602 5605 5607 5609 5611 5613 5616 5619 5622 5625 5629 5631 5633 5636 5639 5643 5647 5650 5652 5654 5657 5659 5662 5666 5669 5672 5675 5678 5681 5685 5688 5691 5695 5698 5701 5702 5703 5707 5709 5708 5707 5709 5711 5712 5714 5717 5719 5722 5726 5728 5731 5732 5734 5736 5738 5739 5741 5742
5523 5527 5531 5535 5539 5541 5545 5548 5551 5555 5558 5561 5564 5567 5570 5572 5574 5576 5578 5579 5581 5582 5583 5585 5587 5589 5591 5593 5596 5599 5602 5605 5606 5609 5611 5613 5615 5618 5621 5624 5627 5629 5632 5636 5639 5642 5645 5647 5649 5652 5654 5656 5659 5663 5666 5669 5673 5677 5680 5682 5685 5689 5691 5693 5696 5699 5701 5704 5705 5703 5703 5705 5708 5711 5713 5715 5717 5720 5723 5725 5727 5729 5731 5733 5734 5736 5737 5738
5522 5526 5530 5534 5538 5541 5544 5547 5550 5553 5557 5561 5565 5568 5570 5572 5575 5576 5578 5579 5580 5581 5582 5583 5585 5587 5589 5591 5594 5597 5601 5603 5606 5608 5610 5612 5615 5618 5620 5623 5625 5629 5632 5636 5638 5640 5643 5645 5648 5650 5653 5656 5658 5660 5664 5668 5672 5675 5677 5679 5682 5685 5686 5689 5693 5696 5698 5699 5699 5699 5701 5703 5706 5708 5710 5712 5715 5717 5720 5722 5724 5726 5728 5730 5731 5733 5734 5736
5521 5525 5529 5533 5537 5541 5544 5547 5550 5554 5557 5561 5564 5567 5570 5573 5575 5576 5578 5579 5580 5580 5580 5581 5583 5585 5588 5590 5591 5595 5599 5602 5604 5607 5609 5611 5614 5617 5619 5621 5625 5629 5632 5634 5636 5639 5642 5644 5646 5648 5652 5654 5656 5659 5662 5665 5668 5670 5673 5676 5679 5681 5684 5687 5690 5691 5693 5695 5695 5696 5698 5701 5703 5705 5707 5710 5713 5715 5718 5720 5722 5724 5725 5727 5728 5730 5731 5733
5521 5524 5528 5532 5537 5542 5545 5548 5551 5554 5558 5561 5564 5567 5570 5573 5574 5577 5579 5579 5580 5580 5580 5581 5583 5585 5587 5589 5591 5594 5598 5601 5603 5606 5608 5610 5612 5615 5617 5620 5624 5627 5630 5632 5634 5637 5640 5642 5645 5648 5651 5653 5655 5658 5661 5663 5665 5668 5672 5675 5678 5680 5682 5684 5686 5688 5690 5692 5693 5694 5696 5698 5701 5704 5706 5708 5711 5713 5715 5717 5719 5721 5722 5724 5725 5727 5728 5730
5521 5525 5528 5532 5537 5541 5545 5548 5552 5555 5559 5562 5565 5568 5570 5572 5575 5577 5579 5580 5580 5580 5581 5582 5584 5586 5587 5589 5591 5595 5598 5600 5602 5605 5607 5609 5611 5614 5617 5619 5622 5625 5627 5630 5633 5636 5639 5641 5644 5647 5649 5651 5654 5657 5659 5661 5664 5666 5669 5672 5675 5677 5678 5679 5682 5685 5688 5689 5691 5693 5695 5697 5700 5702 5704 5706 5709 5711 5713 5715 5717 5718 5720 5721 5722 5724 5726 5727
5522 5525 5528 5532 5536 5541 5546 5550 5553 5557 5561 5563 5565 5568 5571 5573 5576 5578 5579 5580 5581 5581 5582 5583 5585 5588 5589 5590 5592 5594 5597 5600 5602 5604 5606 5608 5611 5614 5616 5618 5621 5623 5626 5629 5631 5634 5637 5640 5643 5645 5648 5650 5652 5655 5658 5660 5661 5663 5665 5668 5671 5673 5674 5677 5680 5682 5685 5687 5689 5691 5694 5696 5699 5701 5703 5705 5707 5709 5711 5713 5714 5716 5717 5718 5720 5721 5723 5724